FW7752 Weather Reports


time (UTC)temp
F
wind
direction
speed
knots
gust
knots
rain 1hr
in
rain 24hr
in
rain mn
in
humidity
%
barometer
mb
20260510175650 70 60 7.0 10.4 0.00 0.00 0.00 38 1019.1
20260510175147 70 36 7.0 12.2 0.00 0.00 0.00 40 1018.8
20260510174644 69 0 2.6 5.2 0.00 0.00 0.00 37 1019.0
20260510174142 69 11 4.3 14.8 0.00 0.00 0.00 39 1018.9
20260510173637 69 0 7.8 13.0 0.00 0.00 0.00 37 1018.9
20260510173134 69 25 3.5 7.8 0.00 0.00 0.00 39 1018.8
20260510172629 69 27 5.2 10.4 0.00 0.00 0.00 37 1018.8
20260510172126 69 68 10.4 13.9 0.00 0.00 0.00 37 1018.9
20260510171622 68 81 7.0 14.8 0.00 0.00 0.00 39 1019.1
20260510171120 68 58 6.1 9.6 0.00 0.00 0.00 41 1018.9
20260510170616 68 55 7.0 12.2 0.00 0.00 0.00 37 1019.2
20260510170113 68 21 6.1 9.6 0.00 0.00 0.00 39 1019.0
20260510165608 68 4 7.8 10.4 0.00 0.00 0.00 38 1019.0
20260510165104 68 49 13.0 13.0 0.00 0.00 0.00 37 1018.9
20260510164602 68 24 9.6 10.4 0.00 0.00 0.00 40 1018.7
20260510164058 68 53 7.8 12.2 0.00 0.00 0.00 38 1018.8
20260510163554 67 28 3.5 9.6 0.00 0.00 0.00 42 1018.7
20260510163050 67 12 8.7 11.3 0.00 0.00 0.00 39 1018.6
20260510162545 67 50 4.3 12.2 0.00 0.00 0.00 41 1018.9
20260510162042 67 98 6.1 12.2 0.00 0.00 0.00 42 1018.9
20260510161538 67 54 12.2 15.6 0.00 0.00 0.00 39 1018.8
20260510161035 66 74 5.2 14.8 0.00 0.00 0.00 40 1018.7
20260510160532 66 85 5.2 15.6 0.00 0.00 0.00 40 1018.8
20260510160031 66 62 8.7 14.8 0.00 0.00 0.00 39 1018.4
20260510155528 66 68 10.4 19.1 0.00 0.00 0.00 38 1018.4
20260510155025 66 85 7.0 10.4 0.00 0.00 0.00 42 1018.4
20260510154520 66 105 4.3 7.8 0.00 0.00 0.00 44 1018.4
20260510154015 65 73 3.5 7.0 0.00 0.00 0.00 49 1018.2
20260510153510 65 13 5.2 11.3 0.00 0.00 0.00 43 1018.2
20260510153007 64 52 12.2 14.8 0.00 0.00 0.00 44 1018.4
20260510152504 64 75 7.0 13.0 0.00 0.00 0.00 45 1018.6
20260510152000 64 44 7.8 13.9 0.00 0.00 0.00 46 1018.3
20260510151458 64 53 7.0 13.0 0.00 0.00 0.00 46 1018.6
20260510150955 64 85 2.6 10.4 0.00 0.00 0.00 49 1018.7
20260510150450 64 59 3.5 13.9 0.00 0.00 0.00 49 1018.8
20260510145946 64 38 5.2 11.3 0.00 0.00 0.00 49 1018.6
20260510145442 64 39 4.3 7.8 0.00 0.00 0.00 49 1018.3
20260510144939 64 92 4.3 11.3 0.00 0.00 0.00 50 1018.7
20260510144436 64 13 5.2 13.9 0.00 0.00 0.00 47 1018.7
20260510143931 64 96 4.3 7.8 0.00 0.00 0.00 49 1019.0
20260510143427 64 7 7.0 13.9 0.00 0.00 0.00 49 1018.7
20260510142925 64 57 7.8 11.3 0.00 0.00 0.00 52 1018.7
20260510142421 64 78 7.8 14.8 0.00 0.00 0.00 52 1018.4
20260510141917 64 32 7.8 10.4 0.00 0.00 0.00 52 1018.3
20260510141415 64 70 4.3 11.3 0.00 0.00 0.00 55 1018.3
20260510140912 65 50 7.0 9.6 0.00 0.00 0.00 53 1018.1
20260510140408 64 38 5.2 10.4 0.00 0.00 0.00 55 1017.7
20260510135907 64 86 4.3 8.7 0.00 0.00 0.00 54 1017.9
20260510135403 64 58 7.0 12.2 0.00 0.00 0.00 55 1017.8
20260510134901 64 16 6.1 13.9 0.00 0.00 0.00 55 1017.7
20260510134357 64 43 6.1 9.6 0.00 0.00 0.00 54 1017.2
20260510133853 64 85 2.6 7.8 0.00 0.00 0.00 57 1017.4
20260510133350 63 91 2.6 9.6 0.00 0.00 0.00 57 1017.3
20260510132845 63 34 8.7 11.3 0.00 0.00 0.00 56 1017.1
20260510132343 64 93 4.3 13.0 0.00 0.00 0.00 60 1017.4
20260510131840 63 58 4.3 8.7 0.00 0.00 0.00 59 1017.6
20260510131338 63 76 4.3 8.7 0.00 0.00 0.00 59 1017.5
20260510130834 63 65 7.0 10.4 0.00 0.00 0.00 59 1017.4
20260510130331 63 75 4.3 9.6 0.00 0.00 0.00 64 1017.3
20260510125827 62 44 7.8 13.9 0.00 0.00 0.00 63 1017.1
20260510125324 62 48 10.4 13.9 0.00 0.00 0.00 66 1016.8
20260510124821 62 21 5.2 11.3 0.00 0.00 0.00 69 1016.6
20260510124318 62 64 3.5 9.6 0.00 0.00 0.00 73 1016.5
20260510123813 62 71 2.6 8.7 0.00 0.00 0.00 75 1016.5
20260510123309 61 41 3.5 10.4 0.00 0.00 0.00 76 1016.3
20260510122806 61 40 3.5 6.1 0.00 0.00 0.00 77 1016.3
20260510122305 61 38 3.5 6.1 0.00 0.00 0.00 78 1016.0
20260510121758 61 37 5.2 5.2 0.00 0.00 0.00 79 1015.9
20260510121256 60 12 3.5 7.8 0.00 0.00 0.00 79 1015.9
20260510120753 60 343 1.7 5.2 0.00 0.00 0.00 81 1016.0
20260510120249 59 17 3.5 4.3 0.00 0.00 0.00 80 1016.1
20260510115745 59 7 3.5 4.3 0.00 0.00 0.00 81 1016.2
20260510115244 59 30 3.5 4.3 0.00 0.00 0.00 82 1016.0
20260510114738 58 19 2.6 3.5 0.00 0.00 0.00 84 1015.9
20260510114236 58 10 2.6 3.5 0.00 0.00 0.00 86 1015.7
20260510113731 58 37 1.7 2.6 0.00 0.00 0.00 86 1015.6
20260510113228 58 10 1.7 2.6 0.00 0.00 0.00 86 1015.5
20260510112725 58 39 0.0 2.6 0.00 0.00 0.00 87 1015.3
20260510112222 58 296 0.0 1.7 0.00 0.00 0.00 87 1015.2
20260510111717 58 30 0.9 3.5 0.00 0.00 0.00 88 1015.0
20260510111214 58 96 0.9 2.6 0.00 0.00 0.00 88 1015.2
20260510110709 58 2 2.6 3.5 0.00 0.00 0.00 89 1015.0
20260510110207 57 8 0.9 2.6 0.00 0.00 0.00 90 1015.0
20260510105706 57 344 1.7 1.7 0.00 0.00 0.00 91 1014.9
20260510105201 57 2 2.6 2.6 0.00 0.00 0.00 92 1014.9
20260510104658 56 335 1.7 2.6 0.00 0.00 0.00 92 1014.9
20260510104155 57 348 2.6 5.2 0.00 0.00 0.00 90 1015.0
20260510103652 57 354 1.7 1.7 0.00 0.00 0.00 88 1014.8
20260510103149 58 204 0.0 1.7 0.00 0.00 0.00 89 1014.7
20260510102648 57 183 1.7 1.7 0.00 0.00 0.00 90 1014.8
20260510102145 57 180 0.9 1.7 0.00 0.00 0.00 92 1014.4
20260510101642 56 233 0.0 1.7 0.00 0.00 0.00 93 1014.3
20260510101141 56 129 0.0 0.9 0.00 0.00 0.00 94 1014.4
20260510100636 56 38 0.0 2.6 0.00 0.00 0.00 94 1014.8
20260510100134 56 46 0.9 1.7 0.00 0.00 0.00 94 1014.4
20260510095629 56 14 1.7 2.6 0.00 0.00 0.00 94 1014.3
20260510095125 56 13 0.0 1.7 0.00 0.00 0.00 94 1014.3
20260510094623 56 30 2.6 2.6 0.00 0.00 0.00 94 1014.3
20260510094119 56 74 0.0 1.7 0.00 0.00 0.00 95 1014.1
20260510093616 56 11 1.7 1.7 0.00 0.00 0.00 95 1014.3
20260510093113 56 19 1.7 1.7 0.00 0.00 0.00 95 1013.9
20260510092609 56 299 0.0 0.9 0.00 0.00 0.00 95 1013.7
20260510092109 55 322 0.0 0.9 0.00 0.00 0.00 95 1013.6
20260510091606 55 67 0.0 1.7 0.00 0.00 0.00 94 1013.5
20260510091102 56 134 1.7 2.6 0.00 0.00 0.00 94 1013.4
20260510090600 56 86 0.9 1.7 0.00 0.00 0.00 94 1013.7
20260510090055 56 112 0.0 1.7 0.00 0.00 0.00 94 1013.6
20260510085550 56 89 0.0 1.7 0.00 0.00 0.00 94 1013.5
20260510085046 56 52 0.0 0.9 0.00 0.00 0.00 94 1013.4
20260510084543 56 55 0.0 1.7 0.00 0.00 0.00 94 1013.4
20260510084040 56 357 1.7 3.5 0.00 0.00 0.00 94 1013.5
20260510083536 55 9 2.6 2.6 0.00 0.00 0.00 94 1013.4
20260510083032 55 9 0.9 1.7 0.00 0.00 0.00 94 1013.1
20260510082530 55 113 0.0 1.7 0.00 0.00 0.00 94 1013.0
20260510082025 55 133 0.9 1.7 0.00 0.00 0.00 93 1013.2
20260510081520 55 49 0.9 1.7 0.00 0.00 0.00 93 1013.2
20260510081016 55 135 1.7 1.7 0.00 0.00 0.00 93 1013.4
20260510080515 55 76 1.7 2.6 0.00 0.00 0.00 93 1013.1
20260510080012 56 70 1.7 2.6 0.00 0.00 0.00 93 1013.3
20260510075510 56 112 1.7 2.6 0.00 0.00 0.00 93 1013.2
20260510075006 56 144 1.7 1.7 0.00 0.00 0.00 93 1013.1
20260510074504 55 139 0.9 1.7 0.00 0.00 0.00 93 1013.3
20260510073959 55 89 0.0 0.9 0.00 0.00 0.00 93 1013.4
20260510073455 55 317 0.0 0.9 0.00 0.00 0.00 93 1013.3
20260510072952 55 89 0.0 1.7 0.00 0.00 0.00 92 1013.4
20260510072449 55 89 0.0 1.7 0.00 0.00 0.00 92 1013.3
20260510071944 55 106 0.9 1.7 0.00 0.00 0.00 92 1013.2
20260510071441 55 115 1.7 2.6 0.00 0.00 0.00 91 1012.9
20260510070939 56 111 1.7 2.6 0.00 0.00 0.00 91 1013.2
20260510070436 56 106 0.9 1.7 0.00 0.00 0.00 91 1013.2
20260510065932 56 143 1.7 2.6 0.00 0.00 0.00 90 1013.0
20260510065429 56 99 0.0 0.0 0.00 0.00 0.00 90 1012.9
20260510064924 56 14 0.9 2.6 0.00 0.00 0.00 89 1012.7
20260510064422 56 351 1.7 1.7 0.00 0.00 0.00 90 1012.9
20260510063919 56 230 0.0 0.9 0.00 0.00 0.00 90 1012.8
20260510063415 56 156 1.7 1.7 0.00 0.00 0.00 89 1012.9
20260510062913 57 33 0.9 1.7 0.00 0.00 0.00 88 1012.8
20260510062408 57 135 0.0 0.0 0.00 0.00 0.00 87 1012.9
20260510061904 57 124 0.0 1.7 0.00 0.00 0.00 87 1013.0
20260510061400 57 186 0.0 0.9 0.00 0.00 0.00 87 1012.9
20260510060856 58 153 0.9 1.7 0.00 0.00 0.00 87 1012.9
20260510060353 58 149 0.0 2.6 0.00 0.00 0.00 85 1013.0
20260510055849 59 134 1.7 2.6 0.00 0.00 0.00 84 1012.8
20260510055350 59 137 1.7 1.7 0.00 0.00 0.00 84 1012.9
20260510054848 59 179 0.9 2.6 0.00 0.00 0.00 84 1013.0
20260510054344 60 115 1.7 3.5 0.00 0.00 0.00 82 1012.9
20260510053839 60 129 0.9 0.9 0.00 0.00 0.00 79 1012.8
20260510053335 61 184 1.7 2.6 0.00 0.00 0.00 79 1012.7
20260510052832 61 166 1.7 2.6 0.00 0.00 0.00 79 1012.8
20260510052327 61 173 1.7 1.7 0.00 0.00 0.00 79 1012.9
20260510051824 62 97 0.0 2.6 0.00 0.00 0.00 78 1012.9
20260510051321 62 177 0.9 1.7 0.00 0.00 0.00 77 1012.9
20260510050818 62 137 0.0 1.7 0.00 0.00 0.00 75 1012.9
20260510050314 62 119 0.0 0.9 0.00 0.00 0.00 74 1012.8
20260510045811 62 320 0.0 1.7 0.00 0.00 0.00 74 1012.6
20260510045308 62 304 0.0 2.6 0.00 0.00 0.00 75 1012.8
20260510044805 62 294 0.9 1.7 0.00 0.00 0.00 76 1012.6
20260510044302 62 3 1.7 2.6 0.00 0.00 0.00 76 1012.6
20260510043758 61 10 1.7 2.6 0.00 0.00 0.00 79 1012.4
20260510043254 59 341 4.3 6.1 0.00 0.00 0.00 87 1012.6
20260510042752 57 329 4.3 7.8 0.00 0.00 0.00 90 1012.5
20260510042247 57 8 0.9 1.7 0.00 0.00 0.00 87 1011.9
20260510041744 58 89 0.0 0.9 0.00 0.00 0.00 86 1011.9
20260510041242 58 23 0.9 1.7 0.00 0.00 0.00 87 1011.9
20260510040739 57 336 0.0 1.7 0.00 0.00 0.00 89 1012.0
20260510040236 57 148 0.9 1.7 0.00 0.00 0.00 89 1011.5
20260510035731 57 89 0.0 0.9 0.00 0.00 0.00 89 1011.4
20260510035227 57 131 0.0 1.7 0.00 0.00 0.00 88 1011.3
20260510034723 57 126 0.0 0.9 0.00 0.00 0.00 86 1011.6
20260510034221 58 120 0.0 1.7 0.00 0.00 0.00 86 1011.4
20260510033717 58 137 0.9 1.7 0.00 0.00 0.00 86 1011.6
20260510033215 58 124 1.7 1.7 0.00 0.00 0.00 86 1011.4
20260510032711 58 154 1.7 2.6 0.00 0.00 0.00 86 1011.4
20260510032207 58 177 1.7 1.7 0.00 0.00 0.00 87 1011.3
20260510031701 58 124 0.9 2.6 0.00 0.00 0.00 87 1011.3
20260510031158 59 112 1.7 1.7 0.00 0.00 0.00 85 1011.4
20260510030652 59 104 1.7 2.6 0.00 0.00 0.00 84 1011.5
20260510030150 60 119 2.6 2.6 0.00 0.00 0.00 81 1011.3
20260510025647 60 173 1.7 1.7 0.00 0.00 0.00 81 1011.5
20260510025144 60 135 1.7 1.7 0.00 0.00 0.00 81 1011.1
20260510024641 60 156 1.7 1.7 0.00 0.00 0.00 81 1011.2
20260510024138 60 124 0.0 0.9 0.00 0.00 0.00 82 1011.1
20260510023634 60 142 0.9 1.7 0.00 0.00 0.00 81 1010.7
20260510023131 61 104 0.0 0.9 0.00 0.00 0.00 78 1011.0
20260510022631 62 43 0.0 0.0 0.00 0.00 0.00 76 1010.8
20260510022126 61 66 0.0 0.0 0.00 0.00 0.00 76 1010.7
20260510021622 62 66 0.0 0.0 0.00 0.00 0.00 74 1010.4
20260510021120 62 147 0.0 1.7 0.00 0.00 0.00 74 1010.3
20260510020614 62 188 1.7 1.7 0.00 0.00 0.00 76 1010.0
20260510020109 63 174 0.9 1.7 0.00 0.00 0.00 77 1010.1
20260510015606 63 134 0.0 0.9 0.00 0.00 0.00 74 1009.9
20260510015102 64 152 0.9 1.7 0.00 0.00 0.00 71 1010.0
20260510014558 64 137 0.9 1.7 0.00 0.00 0.00 72 1009.7
20260510014055 65 134 0.9 1.7 0.00 0.00 0.00 76 1009.6
20260510013550 66 120 0.0 0.0 0.00 0.00 0.00 68 1009.6
20260510013046 67 142 0.0 0.0 0.00 0.00 0.00 63 1009.5
20260510012539 68 135 0.0 0.9 0.00 0.00 0.00 63 1009.6
20260510012037 69 159 0.0 1.7 0.00 0.00 0.00 58 1009.5
20260510011536 69 211 0.9 1.7 0.00 0.00 0.00 55 1009.4
20260510011032 70 208 1.7 1.7 0.00 0.00 0.00 53 1009.5
20260510010529 71 189 0.0 0.9 0.00 0.00 0.00 50 1009.4
20260510010026 72 199 0.9 1.7 0.00 0.00 0.00 49 1009.4
20260510005521 74 205 0.9 1.7 0.00 0.00 0.00 49 1009.3
20260510005020 75 215 1.7 1.7 0.00 0.00 0.00 43 1009.2
20260510004517 76 219 0.9 1.7 0.00 0.00 0.00 44 1009.2
20260510004015 77 210 0.9 1.7 0.00 0.00 0.00 43 1009.1
20260510003511 79 186 0.9 0.9 0.00 0.00 0.00 40 1009.0
20260510003007 79 204 0.9 1.7 0.00 0.00 0.00 39 1008.9
20260510002503 80 214 1.7 1.7 0.00 0.00 0.00 38 1009.2
20260510001959 80 201 1.7 1.7 0.00 0.00 0.00 40 1009.0
20260510001457 80 207 1.7 1.7 0.00 0.00 0.00 38 1009.1
20260510000955 80 189 1.7 2.6 0.00 0.00 0.00 38 1009.2
20260510000450 80 226 1.7 1.7 0.00 0.00 0.00 40 1009.1
20260509235947 80 214 0.9 1.7 0.00 0.00 0.00 37 1009.0
20260509235444 80 229 0.0 1.7 0.00 0.00 0.00 36 1009.2
20260509234940 81 245 0.9 1.7 0.00 0.00 0.00 34 1009.3
20260509234437 81 241 0.9 2.6 0.00 0.00 0.00 34 1009.1
20260509233935 82 248 3.5 4.3 0.00 0.00 0.00 33 1009.0
20260509233432 82 242 0.9 2.6 0.00 0.00 0.00 34 1009.0
20260509232928 82 230 0.9 1.7 0.00 0.00 0.00 31 1009.1
20260509232426 81 205 2.6 2.6 0.00 0.00 0.00 32 1009.0
20260509231921 81 222 2.6 3.5 0.00 0.00 0.00 35 1009.2
20260509231418 82 212 1.7 2.6 0.00 0.00 0.00 33 1009.0
20260509230916 80 224 0.9 1.7 0.00 0.00 0.00 36 1009.2
20260509230413 80 234 3.5 3.5 0.00 0.00 0.00 33 1009.1
20260509225909 81 262 3.5 4.3 0.00 0.00 0.00 30 1008.9
20260509225406 81 265 1.7 2.6 0.00 0.00 0.00 30 1009.1
20260509224901 81 256 2.6 2.6 0.00 0.00 0.00 29 1009.1
20260509224357 81 253 3.5 6.1 0.00 0.00 0.00 29 1009.0
20260509223855 83 231 4.3 4.3 0.00 0.00 0.00 30 1009.1
20260509223351 83 260 4.3 8.7 0.00 0.00 0.00 28 1009.0
20260509222848 84 260 4.3 4.3 0.00 0.00 0.00 30 1009.0
20260509222343 84 278 1.7 1.7 0.00 0.00 0.00 32 1009.1
20260509221838 83 216 1.7 4.3 0.00 0.00 0.00 28 1009.0
20260509221336 83 241 2.6 4.3 0.00 0.00 0.00 32 1008.9
20260509220831 83 285 3.5 5.2 0.00 0.00 0.00 29 1009.1
20260509220327 82 282 3.5 6.1 0.00 0.00 0.00 27 1009.0
20260509215823 82 289 5.2 7.8 0.00 0.00 0.00 27 1009.1
20260509215320 84 292 6.1 7.8 0.00 0.00 0.00 29 1008.9
20260509214817 83 326 0.9 2.6 0.00 0.00 0.00 26 1009.0
20260509214314 83 313 5.2 5.2 0.00 0.00 0.00 26 1009.2
20260509213811 83 291 5.2 7.0 0.00 0.00 0.00 28 1008.9
20260509213306 83 320 3.5 6.1 0.00 0.00 0.00 31 1009.0
20260509212804 83 279 6.1 7.8 0.00 0.00 0.00 26 1009.2
20260509212305 83 237 4.3 4.3 0.00 0.00 0.00 28 1009.0
20260509211756 83 215 4.3 7.0 0.00 0.00 0.00 27 1009.1
20260509211253 82 232 2.6 3.5 0.00 0.00 0.00 28 1009.1
20260509210750 82 257 6.1 8.7 0.00 0.00 0.00 28 1009.3
20260509210248 82 261 4.3 11.3 0.00 0.00 0.00 30 1009.1
20260509205747 82 260 4.3 5.2 0.00 0.00 0.00 29 1009.4
20260509205242 82 280 3.5 7.8 0.00 0.00 0.00 28 1009.1
20260509204738 82 305 4.3 6.1 0.00 0.00 0.00 31 1009.5
20260509204235 82 313 3.5 10.4 0.00 0.00 0.00 27 1009.3
20260509203731 82 316 7.0 10.4 0.00 0.00 0.00 26 1009.4
20260509203229 82 352 3.5 7.0 0.00 0.00 0.00 24 1009.5
20260509202724 82 314 6.1 7.0 0.00 0.00 0.00 26 1009.5
20260509202221 82 280 7.8 10.4 0.00 0.00 0.00 28 1009.5
20260509201715 81 294 3.5 6.1 0.00 0.00 0.00 34 1009.5
20260509201212 81 277 4.3 8.7 0.00 0.00 0.00 30 1009.5
20260509200708 82 316 6.1 10.4 0.00 0.00 0.00 33 1009.7
20260509200203 82 236 4.3 7.0 0.00 0.00 0.00 26 1009.7
20260509195659 81 264 1.7 7.0 0.00 0.00 0.00 29 1010.0
20260509195155 81 335 5.2 9.6 0.00 0.00 0.00 32 1009.9
20260509194648 81 295 6.1 12.2 0.00 0.00 0.00 30 1009.9
20260509194141 81 253 6.1 7.8 0.00 0.00 0.00 30 1010.0
20260509193636 81 323 6.1 8.7 0.00 0.00 0.00 31 1009.8
20260509193132 81 275 7.0 7.8 0.00 0.00 0.00 30 1010.0
20260509192629 80 273 3.5 8.7 0.00 0.00 0.00 32 1009.9
20260509192124 80 309 6.1 14.8 0.00 0.00 0.00 28 1009.9
20260509191624 80 237 7.8 12.2 0.00 0.00 0.00 30 1010.0
20260509191121 80 288 9.6 9.6 0.00 0.00 0.00 30 1009.8
20260509190617 80 259 5.2 11.3 0.00 0.00 0.00 33 1010.0
20260509190115 80 252 7.0 9.6 0.00 0.00 0.00 33 1009.8
20260509185612 80 285 7.8 12.2 0.00 0.00 0.00 33 1009.8
20260509185108 80 298 5.2 7.0 0.00 0.00 0.00 36 1010.1
20260509184606 79 252 7.0 9.6 0.00 0.00 0.00 33 1010.0
20260509184103 79 314 8.7 13.0 0.00 0.00 0.00 36 1010.0
20260509183558 79 278 2.6 8.7 0.00 0.00 0.00 34 1009.9
20260509183054 80 332 5.2 8.7 0.00 0.00 0.00 40 1010.0
20260509182551 79 339 4.3 7.0 0.00 0.00 0.00 40 1009.9
20260509182047 79 293 4.3 7.8 0.00 0.00 0.00 39 1010.0
20260509181546 79 246 4.3 6.1 0.00 0.00 0.00 45 1009.9
20260509181042 79 313 6.1 7.8 0.00 0.00 0.00 38 1010.0
20260509180538 78 327 6.1 12.2 0.00 0.00 0.00 34 1010.1
20260509180036 79 323 5.2 7.8 0.00 0.00 0.00 38 1010.0